Location: Ceske Budejovice
(48.9830°N, 14.4670°E)
Time: 14:38:42
(UTC+02:00)

ISS - Visible Passes

Search period start: 15 May 2025 00:00
Search period end: 25 May 2025 00:00
Orbit: 416 x 420 km, 51.6° (Epoch: 15 May)

Date Brightness Start Highest point End Pass type
(mag) Time Alt. Az. Time Alt. Az. Time Alt. Az.
15 May -2.3 00:40:31 10° WNW 00:42:21 30° WNW 00:42:21 30° WNW visible
15 May -3.0 22:15:36 10° W 22:18:55 52° N 22:22:12 10° ENE visible
15 May -3.7 23:52:34 10° WNW 23:55:56 75° NNE 23:55:59 74° NNE visible
16 May -3.1 21:27:34 10° W 21:30:52 57° N 21:34:12 10° ENE visible
16 May -3.3 23:04:35 10° WNW 23:07:55 61° NNE 23:09:36 26° E visible
17 May -1.6 00:41:27 10° WNW 00:42:30 18° W 00:42:30 18° W visible
17 May -3.1 22:16:34 10° WNW 22:19:53 54° N 22:23:11 10° E visible
17 May -3.3 23:53:24 10° WNW 23:56:06 50° WSW 23:56:06 50° WSW visible
18 May -2.9 21:28:31 10° WNW 21:31:49 51° N 21:35:06 10° E visible
18 May -3.9 23:05:23 10° WNW 23:08:45 86° SSW 23:09:42 44° ESE visible
19 May -3.6 22:17:22 10° WNW 22:20:44 74° NNE 22:23:18 16° E visible
19 May -2.1 23:54:21 10° W 23:56:12 24° WSW 23:56:12 24° WSW visible
20 May -3.3 21:29:20 10° WNW 21:32:40 61° N 21:36:00 10° E visible
20 May -3.4 23:06:11 10° WNW 23:09:25 44° SSW 23:09:48 42° S visible
21 May -3.7 22:18:05 10° WNW 22:21:25 64° SSW 22:23:25 22° SE visible
21 May -1.2 23:55:51 10° WSW 23:56:19 12° WSW 23:56:19 12° WSW visible
22 May -3.8 21:30:01 10° WNW 21:33:23 88° SSW 21:36:45 10° ESE visible
22 May -2.1 23:07:13 10° W 23:09:49 21° SW 23:09:57 21° SW visible
23 May -2.6 22:18:53 10° W 22:21:53 31° SW 22:23:36 19° SSE visible
24 May -3.2 21:30:40 10° WNW 21:33:54 46° SSW 21:37:07 10° SE visible
